SBIRS GEO-3 (USA 282)

Last updated on Fri Jul 11 2025 00:02:45 GMT+0000 (Coordinated Universal Time)

1 43162U 18009A 25191.56572549 .00000143 00000+0 00000+0 0 9991 2 43162 2.0886 354.2114 0002025 111.3299 227.4562 1.00272516 27413
UTC large
Height (km)
Speed (km/s)
/
Latitude / Longitude
Inclination (degrees)
Orbital Period (minutes)
Azimuth
Elevation
Range (km)
Doppler Factor

Next 0 passes for location: London (51.5072 / 0.1276)

Sorry there are no passes over London.